Location: Mountain Grove
(34.0887°N, 86.6172°W)
Time: 21:43:39
(UTC+00:00)

AQUA - Pass Details

Date: 14 July 2020
Orbit: 701 x 703 km, 98.2° (Epoch: 08 August)

Event Time Altitude Azimuth Distance (km) Brightness Sun altitude
Rises 08:05:18 0° 4° (N) 3,095 8.1 -26.0°
Reaches altitude 10° 08:07:38 10° 358° (N) 2,173 7.0 -25.7°
Enters shadow 08:11:45 43° 301° (WNW) 981 4.4 -25.2°
